Regional Weather Roundup
Issued by NWS New Orleans/Baton Rouge, LA

Home | Current Version | Previous Version | Graphics & Text | Print | Product List | Glossary On
Versions: 1 2 3 4 5 6 7 8 9 10 11 12 13 14 15 16 17 18 19 20 21 22 23 24 25 26 27 28 29 30 31 32 33 34 35 36 37 38 39 40 41 42 43 44 45 46 47 48 49 50
872
ASUS44 KLIX 171301
RWRLIX
NEW ORLEANS REGIONAL WEATHER ROUNDUP
NATIONAL WEATHER SERVICE NEW ORLEANS LA
800 AM CDT THU APR 17 2014

NOTE: "FAIR" INDICATES FEW OR NO CLOUDS BELOW 12,000 FEET WITH NO
      SIGNIFICANT WEATHER AND/OR OBSTRUCTIONS TO VISIBILITY.
      SKY/WX - SKY CONDITION AND SIGNIFICANT WEATHER.
      TMP - AIR TEMPERATURE.     DP    - DEWPOINT TEMPERATURE.
      RH  - RELATIVE HUMIDITY.   PRES  - PRESSURE.
      HI  - HEAT INDEX.          WCI   - WIND CHILL INDEX.

*  THESE STATIONS ARE NOT NWS OR FAA STATIONS AND ARE NOT UNDER
   NWS QUALITY CONTROL.

LAZ038-040-048-061>063-065>067-069-171400-
SOUTHEAST LOUISIANA

CITY           SKY/WX    TMP DP  RH WIND       PRES   REMARKS
N.O. AUDUBON     N/A     59 N/A N/A MISG        N/A
N.O. INTL ARPT PTSUNNY   59  55  87 NE9       30.18R
N.O. LAKEFRONT CLOUDY    59  54  83 NE14      30.19R
N.O. DOWNTOWN* CLOUDY    57  50  77 NE5       30.18R
SLIDELL        CLOUDY    55  49  80 NE5       30.18R
BATON ROUGE    PTSUNNY   53  47  79 NE7       30.19R
BOOTHVILLE     SUNNY     59  56  89 VRB3      30.16R
BELLE CHASSE   CLOUDY    60  54  80 N5        30.17R
BOGALUSA*        N/A     53  49  86 N3        30.22R
GALLIANO*      NOT AVBL
NEW ROADS*     NOT AVBL
GONZALES*      PTSUNNY   54  50  89 N7        30.18R
HAMMOND*       NOT AVBL
HOUMA*         PTSUNNY   61  52  72 NE9       30.14S
PORT FOURCHON* CLOUDY    66  55  68 E8        30.15R

$$

MSZ070-080>082-171400-
SOUTHERN MISSISSIPPI

CITY           SKY/WX    TMP DP  RH WIND       PRES   REMARKS
MCCOMB         CLOUDY    50  45  83 VRB3      30.22R
GULFPORT       PTSUNNY   59  50  72 NE8       30.18R
BILOXI         CLOUDY    56  52  86 NE13      30.19R
PASCAGOULA     CLOUDY    56  52  86 NE10      30.20R
STENNIS ARPT*  PTSUNNY   54  46  76 NE7       30.19R

$$

COASTAL OBSERVATIONS
LAKE AND NEARSHORE STATIONS

STATION/POSITION TIME  TEMP    WIND        PRES    WAVE
                       AIR SEA DIR/SP/G            HT/PER
                 (UTC) (F)     (DEG/KT/KT) (MB)    (FT/S)
PASCAGOULA       1200   57      50/ 10/ 16 1021.6
WAVELAND YACHT   1200   54 64   40/  7/  9 1021.1
GRAND ISLE       1200   65 66   90/  6/ 10 1020.8
SOUTHWEST PASS   1200   65 58  100/ 11/ 12 1020.3
NEW CANAL        1200   58 62   60/ 14/ 16 1021.7
SHELL BEACH      1200   61 61   50/ 15/ 16 1020.9

OFFSHORE STATIONS

STATION/POSITION TIME  TEMP    WIND        PRES    WAVE
                       AIR SEA DIR/SP/G            HT/PER
                 (UTC) (F)     (DEG/KT/KT) (MB)    (FT/S)
64 S DAUPHIN ISL 1228   68 70   90/ 23/ 27 1020.1

$$




USA.gov is the U.S. government's official web portal to all federal, state and local government web resources and services.